Regional Weather Roundup
Issued by NWS

Home | Current Version | Previous Version | Text Only | Print | Product List | Glossary On
Versions: 1 2 3 4 5 6 7 8 9 10 11 12 13 14 15 16 17 18 19 20 21 22 23 24 25 26 27 28 29 30 31 32 33 34 35 36 37 38 39 40 41 42 43 44 45 46 47 48 49 50
956
ASUS43 KLSX 260457
RWRMO

WEATHER SUMMARY FOR MISSOURI
NATIONAL WEATHER SERVICE SPRINGFIELD MO
1200 AM CDT SUN MAR 26 2017

NOTE: "FAIR" INDICATES FEW OR NO CLOUDS BELOW 12,000 FEET WITH NO
       SIGNIFICANT WEATHER AND/OR OBSTRUCTIONS TO VISIBILITY.
       CURRENT SKY AND/OR WEATHER CONDITIONS ARE NOT AVAILABLE FOR
       CHILLICOTHE AND FARMINGTON.

MOZ001>031-035>038-043-044-053-054-260600-
...NORTHERN AND WESTERN MISSOURI...

CITY           SKY/WX    TMP DP  RH WIND       PRES   REMARKS
KANSAS CTY INT CLOUDY    45  43  93 N8        29.89S
LEE`S SUMMIT   CLOUDY    47  45  93 N9        29.88S
ST JOSEPH      CLOUDY    44  44 100 N7        29.90F
CHILLICOTHE      N/A     46  44  93 N5        29.88S

$$
MOZ066>068-077>081-088>096-101>105-260600-
...SOUTHWEST MISSOURI...

CITY           SKY/WX    TMP DP  RH WIND       PRES   REMARKS
SPRINGFIELD    CLOUDY    46  44  93 SW9       29.90S FOG
JOPLIN         CLOUDY    47  44  90 SW6       29.92S

$$
MOZ032>034-039>042-045>050-055>058-069>072-260600-
...CENTRAL MISSOURI...

CITY           SKY/WX    TMP DP  RH WIND       PRES   REMARKS
COLUMBIA       NOT AVBL
JEFFERSON CITY CLOUDY    53  48  83 SW9       29.85S
ROLLA          CLOUDY    48  46  93 SW14      29.85F
SEDALIA        CLOUDY    50  32  50 NW9       29.86S FOG
WHITEMAN AFB   CLOUDY    48  48 100 N8        29.85S
WARRENSBURG    CLOUDY    48  45  87 NW5       29.86F

$$
MOZ051-052-059>065-260600-
...EAST CENTRAL MISSOURI...

CITY           SKY/WX    TMP DP  RH WIND       PRES   REMARKS
ST LOUIS INTL  MOCLDY    57  52  83 SW10      29.85S

$$
MOZ072>076-082>087-097>100-106>115-260600-
...SOUTH CENTRAL AND SOUTHEAST MISSOURI...

CITY           SKY/WX    TMP DP  RH WIND       PRES   REMARKS
CAPE GIRARDEAU PTCLDY    56  53  90 S8        29.89S
FARMINGTON     CLOUDY    55  52  88 VRB3      29.88S
POPLAR BLUFF   CLOUDY    56  51  84 SW6       29.89F
WEST PLAINS    CLOUDY    50  46  86 SW12      29.92S

$$



USA.gov is the U.S. government's official web portal to all federal, state and local government web resources and services.